Regional Weather Roundup
Issued by NWS Charleston, SC

Current Version | Previous Version | Graphics & Text | Print | Product List | Glossary On
Versions: 1 2 3 4 5 6 7 8 9 10 11 12 13 14 15 16 17 18 19 20 21 22 23 24 25 26 27 28 29 30 31 32 33 34 35 36 37 38 39 40 41 42 43 44 45 46 47 48 49 50
000 ASUS42 KCHS 011212 RWRCHS REGIONAL WEATHER ROUNDUP NATIONAL WEATHER SERVICE CHARLESTON SC 800 AM EDT WED JUL 01 2015 NOTE: "FAIR" INDICATES FEW OR NO CLOUDS BELOW 12,000 FEET WITH NO SIGNIFICANT WEATHER AND/OR OBSTRUCTIONS TO VISIBILITY. NOT ALL STATIONS ARE QUALITY CONTROLLED BY THE NATIONAL WEATHER SERVICE. USE DATA WITH CAUTION...ESPECIALLY DEWPOINT OBSERVATIONS. SCZ027-030-031-034>040-042>050-011300- ...SOUTHEAST SOUTH CAROLINA... CITY SKY/WX TMP DP RH WIND PRES REMARKS N CHARLESTON MOSUNNY 72 69 90 SW7 30.02R 6HR MIN TEMP: 71; 6HR MAX TEMP: 73; WATERFRONT PAR N/A 74 70 87 SW5 29.99R MOUNT PLEASANT FAIR 73 70 88 SW6 30.02R JOHNS ISLAND FAIR 75 72 88 SW7 30.02S PINOPOLIS NOT AVBL MONCKS CORNER PTSUNNY 72 70 94 SW5 30.01R SUMMERVILLE FAIR 70 70 100 CALM 30.03R BEAUFORT MCAS PTSUNNY 73 69 87 MISG 30.04R 6HR MIN TEMP: 72; 6HR MAX TEMP: 74; BEAUFORT ARPT FAIR 73 70 88 SW9 30.04R HILTON HEAD IS SUNNY 73 70 88 SW12 30.06R WALTERBORO MOSUNNY 70 68 94 SW7 30.03R ALLENDALE FAIR 72 70 94 VRB5 30.02R ...SOUTHERN MIDLANDS AND PEE DEE... CITY SKY/WX TMP DP RH WIND PRES REMARKS GEORGETOWN NOT AVBL KINGSTREE NOT AVBL ORANGEBURG MOSUNNY 70 68 93 SW8 30.01R 6HR MIN TEMP: 69; 6HR MAX TEMP: 71; BARNWELL FAIR 72 70 94 SW7 30.03R AIKEN NOT AVBL MANNING PTSUNNY 70 70 100 SW5 30.00R COLUMBIA CLOUDY 72 68 87 SW3 29.98R 6HR MIN TEMP: 71; 6HR MAX TEMP: 72; SUMTER PTSUNNY 71 69 93 S8 29.97R FOG 6HR MIN TEMP: 70; 6HR MAX TEMP: 71; FLORENCE CLOUDY 72 70 93 SW7 29.98R 6HR MIN TEMP: 71; 6HR MAX TEMP: 72; MYRTLE BEACH PTSUNNY 73 68 83 SW9 30.01R N MYRTLE BEACH PTSUNNY 73 69 87 W6 29.99R 6HR MIN TEMP: 73; 6HR MAX TEMP: 74; $$ GAZ063-065-086>088-099>101-113>116-118-119-134>141-150-011300- ...SOUTHEAST GEORGIA... CITY SKY/WX TMP DP RH WIND PRES REMARKS SAVANNAH ARPT SUNNY 73 67 81 W10 30.06R 6HR MIN TEMP: 71; 6HR MAX TEMP: 73; HUNTER AAF SUNNY 73 69 89 SW8 30.04R 6HR MIN TEMP: 71; 6HR MAX TEMP: 73; FORT STEWART SUNNY 73 67 82 SW9 30.04S 6HR MIN TEMP: 72; 6HR MAX TEMP: 73; STATESBORO SUNNY 71 71 100 W5 30.05R SYLVANIA SUNNY 73 72 97 W5 30.05S CLAXTON FAIR 70 70 100 CALM 30.06R ...CSRA...CENTRAL AND FAR SOUTHEAST GEORGIA... CITY SKY/WX TMP DP RH WIND PRES REMARKS THOMSON SUNNY 72 70 95 SW6 30.07R AUGUSTA-BUSH SUNNY 71 67 87 W8 30.01R 6HR MIN TEMP: 69; 6HR MAX TEMP: 71; 6HR PCP: TRACE; AUGUSTA-DANIEL SUNNY 72 66 81 VRB6 30.03R SWAINSBORO FAIR N/A N/A N/A W3 30.06R VIDALIA HVY RAIN 70 68 94 SW7 30.07R EASTMAN FAIR 71 71 100 CALM 30.09S HAZLEHURST FAIR 72 71 95 SW3 30.07R ALMA MOSUNNY 70 67 90 SW7 30.08S 6HR MIN TEMP: 69; 6HR MAX TEMP: 72; WAYCROSS SUNNY 73 70 91 SW8 30.09S JESUP FAIR 73 70 88 W6 30.08S BAXLEY FAIR 72 68 88 SW6 30.07S BRUNSWICK SUNNY 72 68 88 SW8 30.10S SAINT SIMONS PTSUNNY 72 66 81 SW10 30.09R 6HR MIN TEMP: 71; 6HR MAX TEMP: 73; $$ SCZ027-028-034-036>038-045-046-048>050-GAZ119-141-011300- ...LAKE AND SUPPLEMENTAL COASTAL OBSERVATIONS... STATION/POSITION TIME TEMP WIND PRES WAVE SWELL AIR SEA DIR/SP/G HT/PER HT/PER/DIR (UTC) (F) (DEG/KT/KT) (MB) (FT/S) (FT/S/D) UPR LAKE MARION NOT AVBL WINYAH BAY NOT AVBL LAKE MURRAY 1100 74 250/ 5/ 10 1014.2R ACE BASIN NERRS NOT AVBL FORT PULASKI 1100 74 84 240/ 7/ 10 1017.9R SAPELO ISLAND 1100 72 240/ 10 1018.0S $$ ANZ835-935-AMZ111-154-330-350-352-354-370-450-454-472-011300- ...C-MAN AND BUOY OBSERVATIONS... STATION/POSITION TIME TEMP WIND PRES WAVE SWELL AIR SEA DIR/SP/G HT/PER HT/PER/DIR (UTC) (F) (DEG/KT/KT) (MB) (FT/S) (FT/S/D) BUOY 41004 1150 80 82 240/ 17/ 19 1015.9R 4/ 8 2/ 8 BUOY 41008 1150 75 79 250/ 16/ 17 1018.5R 3/ 4 2/110/ 8 FOLLY BEACH CMAN 1100 74 240/ 7/ 10 1016.4R CAPERS NEARSHORE 1108 77 250/ 14/ 19 1016.2R FRIPP NEARSHORE 1100 77 270/ 14/ 16 1016.5R STATION/POSITION TIME TEMP WIND PRES WAVE SWELL AIR SEA DIR/SP/G HT/PER HT/PER/DIR (UTC) (F) (DEG/KT/KT) (MB) (FT/S) (FT/S/D) 5E ST. MARYS GA 1121 77 N/A 2/ 8 FRYING PAN BUOY 1150 80 80 230/ 17/ 21 1015.7R 4/ 5 2/120/ 8 BUOY 41025 1150 81 82 220/ 16/ 19 1013.9F 6/ 6 2/280/12 CAPE LOOKOUT NC 1100 79 260/ 15/ 17 1014.3R BUOY 41002 1150 82 80 240/ 17/ 21 1018.3R 7/ 8 2/140/13 BUOY 41010 1120 82 84 220/ 14/ 16 1020.3R ST AUGUSTINE FL 1200 77 73 250/ 5/ 8 1020.9R $$

USA.gov is the U.S. government's official web portal to all federal, state and local government web resources and services.